Theta_e
315 315 317 318 307 307 301 302 306 305 305 310 314 314 315 318 316 313 335 338 337 341 348 350 349 351 351 351 350 349 349 348 345 343 342 342 341 340 339 338 340 338 339 339 338 339 339 339 339
313 314 319 315 303 298 301 306 304 308 310 319 317 318 317 316 326 329 333 338 339 342 348 348 346 350 350 350 349 348 346 345 345 343 342 341 341 340 339 338 341 337 337 337 336 335 335 336 336
313 314 308 306 303 298 300 305 307 310 312 315 317 322 320 319 328 332 338 339 340 343 347 348 346 349 350 349 348 347 346 345 345 343 341 341 341 341 338 338 340 340 338 337 337 336 336 335 334
313 313 310 301 300 303 304 307 309 309 313 318 317 318 325 331 331 335 339 339 340 343 346 346 346 349 349 349 349 348 347 345 345 344 342 342 342 342 342 340 341 340 338 337 337 337 336 336 336
313 308 298 297 299 302 305 308 309 307 309 313 317 316 321 331 335 337 338 339 339 342 346 349 345 347 348 348 349 348 347 346 344 344 344 343 344 344 342 341 342 341 338 336 336 335 334 334 334
303 304 294 294 298 298 300 303 304 305 307 310 313 317 321 334 335 338 338 339 341 340 344 347 339 342 345 346 347 347 347 345 344 343 344 343 343 342 342 341 341 339 337 336 335 334 334 334 332
301 299 293 293 294 295 299 303 302 303 304 305 317 314 323 330 336 338 339 339 341 340 342 345 347 344 337 340 342 344 345 343 343 343 342 341 341 341 341 341 341 339 336 335 334 335 335 335 334
306 301 294 294 293 293 299 304 305 306 305 315 322 312 315 331 335 336 338 338 339 339 341 342 346 347 348 347 335 337 339 339 340 339 337 335 335 336 337 335 339 340 336 335 335 335 335 334 333
305 297 292 292 293 295 301 300 305 307 306 310 318 318 325 334 334 333 332 335 337 340 341 341 345 346 345 346 340 333 333 334 334 334 330 329 335 337 337 333 335 338 336 336 335 334 331 328 326
300 296 295 298 298 297 300 300 302 302 303 306 311 320 329 334 330 329 329 329 333 334 337 343 344 344 344 342 344 345 345 344 341 340 339 337 335 335 337 331 330 332 332 335 333 325 319 323 326
298 295 298 301 301 301 299 299 302 301 299 306 307 307 324 327 328 328 329 331 332 334 335 339 340 341 344 340 343 343 342 345 342 340 341 340 335 336 337 337 335 336 326 334 331 327 325 319 319
295 297 298 300 300 299 297 300 300 301 302 305 306 306 319 325 326 328 329 333 331 332 333 336 339 339 341 340 341 340 340 342 341 338 340 339 335 334 334 334 334 335 334 334 331 326 319 316 313
295 296 297 298 298 298 299 298 299 300 305 307 306 305 310 322 327 330 332 334 331 331 333 334 337 337 339 339 339 338 338 338 339 338 339 338 334 332 333 332 333 333 333 330 325 321 316 313 311
295 295 295 297 298 299 296 298 298 299 304 303 303 304 306 315 323 328 329 330 330 332 332 333 335 337 337 337 337 337 337 337 336 337 338 338 335 334 334 334 333 331 325 315 318 317 313 311 311
295 291 294 295 297 297 298 297 294 299 300 300 302 303 303 304 317 326 330 329 331 331 331 331 333 336 336 336 336 335 336 335 334 337 338 338 336 335 334 333 331 325 315 311 314 311 310 309 308
291 291 289 293 295 296 296 293 298 299 297 298 300 301 301 303 302 313 328 331 331 331 331 331 331 334 335 335 335 335 335 333 333 337 338 338 337 335 334 331 325 316 310 315 313 310 308 308 308
290 286 286 290 296 293 294 291 296 298 297 298 299 300 300 301 302 303 308 326 331 332 331 331 331 331 334 335 335 334 334 332 331 337 337 337 336 334 331 327 319 309 314 312 310 308 308 306 306
283 284 286 286 291 292 290 291 295 297 297 297 297 298 299 299 300 303 304 306 318 332 333 332 332 332 332 333 334 333 332 331 331 336 336 336 334 330 327 318 310 307 310 310 308 307 307 306 306
287 285 285 289 292 290 290 290 293 296 295 292 295 295 296 296 298 298 300 303 305 315 328 333 331 331 330 330 329 321 324 321 321 329 331 330 328 323 320 314 307 308 310 309 307 306 305 303 306
287 285 284 288 290 289 289 289 293 292 292 293 293 293 294 295 297 296 297 299 300 302 310 325 331 331 331 330 328 327 326 319 321 319 321 320 316 311 308 307 307 307 307 306 306 305 303 303 304
285 282 281 282 287 290 288 285 289 291 292 292 293 294 295 295 295 294 295 297 299 299 301 305 322 330 332 331 327 317 312 308 306 308 309 307 309 309 308 305 305 307 306 305 305 305 303 302 301
281 283 281 281 282 279 288 277 286 288 287 289 290 292 293 295 296 296 295 296 297 298 300 302 304 324 330 331 323 315 316 314 314 313 312 309 307 304 302 303 304 305 305 304 304 304 303 303 300
281 281 279 281 282 282 283 280 282 285 281 284 287 290 292 294 295 296 296 297 297 298 300 301 305 308 328 329 323 320 320 324 320 316 312 307 303 302 302 301 300 300 303 303 302 301 301 302 301
282 282 282 285 283 277 278 279 275 278 280 283 286 288 289 289 291 292 294 295 297 298 299 299 302 308 316 327 323 320 320 320 312 311 308 302 305 301 300 300 301 299 300 299 301 301 300 299 300
280 279 274 274 275 273 281 277 274 280 282 283 284 285 287 288 288 289 290 292 293 296 298 297 298 301 309 322 319 319 319 318 314 310 308 305 302 299 299 300 300 297 299 300 299 299 299 299 298
276 277 273 266 269 271 277 272 276 281 283 285 285 285 286 287 287 287 288 290 291 293 296 297 297 298 303 308 316 318 316 313 312 311 309 307 303 302 300 301 301 297 296 297 298 298 297 298 298
275 273 278 272 272 270 275 278 280 281 281 281 282 283 283 285 287 287 288 289 290 291 292 296 296 296 298 302 307 312 314 309 309 308 308 306 305 302 298 298 298 296 295 296 297 296 296 297 297
277 278 272 273 265 264 271 273 276 276 277 279 279 281 283 284 285 287 288 288 289 290 291 294 296 295 297 298 301 305 306 308 307 306 303 301 302 299 297 296 293 293 295 295 296 296 295 295 295
273 271 271 271 270 266 264 270 278 276 278 278 279 281 283 283 284 285 287 289 289 290 290 291 293 295 295 295 297 300 303 303 302 301 300 299 297 297 294 293 292 291 292 293 294 294 294 294 294
275 270 271 267 264 268 267 267 279 280 280 279 279 281 282 284 284 285 286 287 288 289 289 289 290 293 294 294 296 297 298 299 299 298 297 297 295 295 294 292 291 291 291 292 292 292 293 292 292
Wind_Speed
5 4 2 4 4 3 4 3 4 7 4 1 1 4 5 4 5 1 1 9 21 22 21 20 17 20 18 18 18 18 17 17 19 18 17 16 16 16 15 14 11 11 12 13 12 11 11 10 10
5 3 3 1 5 8 6 4 10 8 4 3 4 6 5 7 1 5 11 8 20 21 21 21 16 19 19 19 18 18 17 18 17 18 17 16 15 15 14 14 12 13 13 13 12 12 11 10 10
0 3 3 3 4 10 6 5 4 4 4 4 3 3 3 0 2 4 4 15 21 20 20 19 17 19 19 18 18 17 17 17 15 16 16 16 16 15 14 12 11 12 13 13 13 12 12 11 10
1 3 3 6 13 7 6 4 2 9 2 5 3 7 2 3 2 3 10 18 20 20 20 19 17 19 20 18 19 18 17 17 15 15 15 15 14 14 12 11 10 10 11 10 10 10 10 9 9
1 1 4 6 13 6 6 7 8 10 7 5 2 5 3 2 2 6 14 18 20 19 17 19 15 17 19 18 17 18 18 17 15 14 14 14 13 13 12 11 10 11 11 10 10 9 8 8 8
2 0 4 10 13 5 6 7 9 11 13 10 5 9 2 2 5 8 14 17 17 16 16 19 14 15 16 17 16 16 17 17 15 14 14 13 13 12 11 11 11 11 11 11 10 10 9 9 8
1 3 2 5 7 7 4 6 6 8 12 12 4 5 1 5 6 9 14 16 17 16 14 17 18 15 12 12 12 12 15 15 15 13 13 12 10 10 9 9 9 10 9 10 10 9 8 7 7
1 1 2 3 3 4 5 9 5 6 7 8 5 5 4 6 10 10 13 14 16 14 14 14 18 17 17 15 11 11 12 13 12 12 12 10 8 7 8 7 8 8 9 9 8 8 7 7 6
2 4 4 3 2 3 5 11 7 4 6 5 3 6 7 9 13 11 12 15 16 15 15 14 16 17 16 16 13 11 11 11 11 11 10 10 9 10 10 8 9 8 8 8 8 8 7 6 7
2 4 3 1 5 8 13 9 12 8 12 8 6 1 4 10 12 14 16 17 18 18 18 15 17 17 15 10 14 15 13 12 11 11 12 9 8 8 7 8 7 7 8 8 9 8 5 1 2
3 3 2 5 8 10 14 15 5 8 11 6 7 9 1 8 10 14 15 16 17 16 14 17 17 14 16 10 8 7 7 7 8 13 11 9 7 7 6 6 6 7 7 5 5 5 2 3 2
4 4 3 6 7 9 11 13 12 13 18 13 4 7 5 10 13 14 15 14 16 16 17 17 17 12 11 8 8 7 6 7 8 10 13 9 6 7 7 6 7 6 6 5 4 3 3 3 4
7 5 2 5 12 13 11 13 14 20 18 17 12 12 12 11 14 14 14 13 14 17 17 17 14 13 10 11 8 8 8 8 10 10 12 9 9 8 8 7 7 6 6 5 4 3 3 3 3
1 3 6 8 11 8 9 11 2 6 12 13 10 12 10 11 11 12 13 15 16 16 15 14 15 12 12 11 11 8 8 9 10 10 11 12 9 8 8 7 7 6 5 4 4 3 3 2 2
2 5 6 3 2 4 6 10 6 4 12 15 14 12 12 10 10 14 14 15 16 15 14 14 14 15 14 13 10 8 8 8 8 10 13 13 11 10 9 7 6 5 5 4 5 5 3 2 2
4 1 2 6 10 3 7 13 6 5 17 19 17 14 13 12 6 10 14 15 14 12 14 14 12 15 15 13 10 9 8 8 8 11 10 14 13 12 10 7 6 7 5 6 5 4 4 3 1
8 4 10 9 14 9 8 17 11 18 16 21 17 17 15 14 12 9 11 13 17 16 14 15 15 17 17 15 11 11 11 8 7 11 11 15 14 12 10 8 7 7 7 6 6 4 4 4 3
9 4 7 10 10 16 16 16 16 18 18 18 17 15 17 17 19 18 16 13 15 18 17 14 13 16 15 11 10 8 8 9 9 12 11 14 11 12 10 8 9 7 7 6 6 6 4 3 4
4 7 11 11 8 17 11 17 19 20 16 19 18 20 20 20 21 20 21 21 16 15 18 17 16 16 11 11 11 6 9 6 6 8 12 13 11 12 10 8 9 6 8 8 8 7 7 4 4
7 7 9 12 17 13 15 17 14 21 19 19 21 22 23 23 23 21 22 20 20 19 17 19 18 17 15 12 9 7 9 5 7 6 9 11 12 10 8 9 8 8 7 8 9 8 5 3 5
6 11 12 12 16 12 13 4 10 10 19 19 22 20 21 23 24 25 24 23 21 20 19 19 19 18 16 17 10 2 5 4 3 6 7 8 11 10 10 9 8 10 8 7 9 8 7 5 4
9 15 15 15 12 8 10 5 9 14 18 22 22 23 24 25 24 23 23 23 23 20 19 20 20 19 16 16 13 16 12 11 10 10 9 10 13 11 8 8 8 9 7 8 7 7 6 6 6
6 21 16 17 11 8 7 4 9 15 21 25 24 25 25 24 25 25 25 23 22 22 19 18 19 19 18 15 15 14 15 11 7 7 13 10 9 12 10 10 9 7 7 7 9 8 8 6 6
19 12 4 3 3 4 2 6 13 10 15 20 22 24 24 24 24 23 23 24 22 20 20 19 19 18 17 11 16 18 18 13 9 11 10 9 9 8 11 9 11 9 8 8 9 8 9 7 6
18 10 4 2 1 4 1 7 5 7 12 14 16 19 20 20 22 24 25 23 24 25 24 19 19 18 17 14 10 13 16 15 17 15 12 13 10 9 13 13 14 9 10 11 9 9 8 8 8
9 7 4 6 5 11 13 7 6 6 11 13 14 16 19 21 20 23 24 23 23 24 24 23 21 18 16 14 10 11 12 7 10 13 11 10 11 11 12 12 12 11 11 10 10 8 8 9 8
5 5 5 4 3 5 5 5 8 7 15 19 21 20 20 21 23 22 23 21 21 22 23 22 22 20 16 15 11 10 10 10 11 12 12 11 11 9 13 14 12 12 11 11 12 8 10 9 8
6 7 1 1 5 6 5 11 8 11 17 20 21 20 19 19 20 20 19 20 19 19 19 21 20 20 18 14 12 7 4 8 8 10 12 13 11 14 14 13 11 9 10 9 10 9 11 10 8
4 4 4 3 3 4 7 4 3 2 11 19 20 18 17 17 18 17 18 18 18 17 19 20 20 20 18 15 11 10 4 4 6 8 10 12 13 13 14 12 13 10 10 9 9 9 12 12 11
4 3 3 2 2 5 7 10 10 9 20 23 18 18 16 15 15 17 16 17 17 18 19 19 20 20 18 15 11 8 6 1 5 6 9 11 13 13 14 12 14 14 12 5 7 10 10 13 12
Wind_Direction
319 332 272 216 233 257 250 239 296 247 256 186 178 224 239 328 201 10 63 158 154 159 158 165 160 154 152 146 144 142 141 139 137 136 135 131 127 124 118 114 111 119 120 117 111 108 104 96 86
342 287 232 171 237 247 243 252 247 286 307 320 222 242 245 224 149 105 136 164 159 158 158 166 159 155 153 149 147 147 148 146 142 140 138 135 132 126 123 120 114 116 119 119 115 108 102 94 87
299 315 239 225 227 240 262 209 315 337 329 242 253 265 281 2 132 156 122 159 163 162 163 157 158 158 156 153 152 151 152 149 146 143 142 142 140 134 129 126 123 117 117 117 114 109 102 98 92
303 175 158 244 236 237 244 282 340 311 339 197 306 256 223 1 345 172 154 162 162 164 166 142 160 159 156 158 157 156 153 154 149 147 147 146 145 142 135 136 129 123 121 118 113 106 100 96 96
38 202 220 238 256 272 270 294 297 293 308 297 255 271 275 88 67 138 155 162 165 166 168 161 162 160 157 162 162 156 154 152 153 153 150 145 146 147 139 137 133 132 126 121 116 109 101 99 99
113 239 222 240 250 274 288 292 288 274 284 270 243 257 275 69 146 148 156 164 165 161 172 167 158 153 159 165 163 158 154 154 155 156 153 149 148 145 147 146 138 135 132 125 118 110 101 93 89
86 199 224 284 289 292 306 339 293 325 299 275 270 258 68 169 141 161 159 163 163 168 174 173 173 161 153 161 161 158 157 155 155 156 156 155 155 155 155 152 145 141 133 126 119 110 100 91 84
120 204 187 223 283 295 15 340 331 316 331 329 295 251 247 139 144 157 158 167 164 172 179 178 179 177 177 174 162 161 157 154 155 155 154 152 153 160 163 157 156 143 136 127 117 106 94 83 71
288 211 208 258 213 28 0 347 351 317 282 295 279 321 347 147 145 153 165 174 177 178 182 180 185 183 183 182 175 163 160 158 155 157 152 156 178 177 165 173 148 145 131 123 113 98 90 99 84
312 248 173 20 338 341 323 330 329 318 315 300 271 183 27 159 169 173 178 180 186 183 186 188 189 189 180 184 176 185 179 179 180 180 173 181 174 176 183 152 143 133 126 112 111 104 106 200 63
5 272 17 307 327 334 312 307 328 312 301 8 332 345 216 209 200 198 196 194 194 190 188 198 195 192 186 181 177 185 186 187 185 186 181 182 177 167 179 163 169 165 176 169 168 155 105 70 36
203 272 289 323 333 316 313 310 293 281 275 300 280 327 264 222 223 217 211 204 201 196 196 200 197 188 198 181 184 187 173 183 190 189 185 184 181 182 179 183 181 183 186 170 176 144 111 87 69
227 210 210 279 292 286 279 277 290 277 280 288 290 280 266 240 231 229 225 217 208 207 205 200 202 189 193 188 189 194 189 181 191 194 192 191 189 187 184 185 187 190 176 169 166 156 139 110 86
322 277 272 254 250 264 284 291 234 298 353 322 330 319 319 288 269 241 233 228 218 213 207 202 202 195 191 196 192 199 190 187 188 197 196 201 194 192 191 185 188 177 163 144 161 164 152 134 120
302 293 296 297 334 318 314 260 219 14 12 346 340 344 345 330 294 262 249 242 232 223 212 210 205 199 198 195 195 193 192 190 189 198 200 198 201 197 194 190 183 162 144 154 149 146 142 133 117
315 259 320 38 10 41 345 283 346 329 339 321 321 323 323 321 308 285 272 256 244 230 214 209 207 207 203 201 191 192 190 191 191 204 203 202 200 199 193 186 181 161 165 174 167 163 151 137 105
37 4 340 327 343 333 346 305 303 324 324 313 320 322 320 319 320 296 266 251 248 236 221 212 208 210 205 203 197 193 192 189 188 211 208 205 201 197 191 188 169 165 171 177 166 156 170 154 135
335 335 315 308 333 341 315 300 317 311 301 316 339 334 348 352 355 350 330 304 267 250 239 218 210 212 209 204 202 193 191 194 196 211 208 205 201 195 187 175 164 164 172 168 167 159 136 130 127
319 310 317 326 341 336 313 310 308 301 13 29 12 5 5 2 346 352 354 345 323 278 255 232 212 211 203 204 198 177 187 186 189 212 205 199 195 189 185 166 161 180 188 177 168 147 151 138 156
50 20 353 311 324 322 320 317 317 65 50 35 22 14 8 0 359 356 352 349 347 330 293 257 236 213 203 207 198 197 190 191 192 184 192 190 183 171 163 159 167 180 178 174 174 171 158 131 178
57 25 340 307 316 289 334 308 28 59 47 33 25 18 14 8 1 357 354 351 347 341 329 305 262 235 218 205 187 132 102 100 136 179 172 177 172 169 174 167 165 179 183 180 182 182 179 158 169
323 351 320 303 319 315 9 297 45 359 21 18 12 9 7 5 4 2 356 355 349 342 333 321 293 256 228 208 189 184 197 189 199 185 187 177 172 167 154 162 171 179 181 175 180 178 186 172 162
326 312 286 294 295 317 21 262 3 31 1 1 3 3 0 360 358 356 355 350 349 346 342 334 318 285 246 215 203 202 215 213 188 183 171 179 164 162 166 174 171 158 178 165 176 171 176 180 167
329 308 307 171 200 230 57 337 53 15 354 350 357 0 358 356 350 352 352 348 345 347 348 343 339 319 285 224 211 211 211 201 173 176 185 174 177 176 162 174 176 162 164 168 172 169 174 168 165
360 2 348 20 338 327 304 330 46 34 22 14 4 359 359 354 354 353 355 352 348 345 347 346 342 334 320 271 225 221 220 200 193 185 185 174 187 187 184 182 174 171 163 169 159 169 164 161 157
339 347 24 312 312 306 314 259 99 63 22 15 11 1 358 356 1 360 356 354 351 348 343 345 343 337 329 310 263 234 230 205 204 191 185 193 190 180 180 180 183 159 158 159 161 166 152 156 150
350 34 337 276 238 266 240 131 194 32 18 9 3 359 360 353 357 355 357 356 354 352 348 343 342 338 337 323 291 266 228 194 197 192 187 182 183 179 167 162 181 163 148 163 160 164 153 152 148
29 355 206 41 296 287 265 291 263 16 8 2 359 356 347 349 347 345 349 354 353 352 351 348 345 341 335 335 315 276 228 211 187 179 178 175 172 167 160 158 156 150 152 162 158 168 151 152 149
21 32 20 295 270 286 301 264 133 343 355 353 347 344 339 340 343 347 343 344 345 350 356 354 350 345 341 336 334 315 281 186 176 182 178 171 157 165 156 157 145 149 147 162 156 181 157 156 151
323 43 44 308 298 267 278 274 283 310 328 329 327 330 330 329 336 340 346 343 343 347 352 357 354 346 343 334 336 333 328 279 178 176 169 161 161 161 158 159 156 160 132 169 169 176 176 159 156